Theta_e
315 313 313 313 313 315 316 316 316 317 317 317 318 317 316 316 316 318 319 318 319 318 317 318 317 317 317 318 319 319 319 319 319 320 320 320 326 331 331 331 331 332 331 333 336 337 339 342 342 342 342 342 341 339 337 338 338 336 335 335 336 336 334 334 335 336 335 334 333 332 332 331 331 333 333 333 332 332 333 332 332 331 330 332 332 329
315 313 313 314 315 315 316 317 317 317 316 317 317 316 317 316 316 319 319 318 318 318 317 318 317 317 318 318 318 319 319 319 319 319 320 320 320 325 329 330 331 332 332 333 335 337 338 340 340 341 342 341 341 340 338 338 337 335 334 333 335 336 335 335 335 336 335 334 333 332 331 331 331 333 333 332 332 332 332 331 331 330 328 330 332 331
315 314 314 315 315 316 316 316 317 317 316 317 317 316 316 317 317 318 318 319 318 318 318 318 317 317 318 318 318 319 319 319 319 319 319 319 320 321 324 326 327 332 334 333 334 337 339 338 338 340 342 341 340 340 338 337 335 332 331 332 333 335 336 336 335 335 335 334 333 332 331 331 331 332 333 332 332 333 332 330 330 329 327 328 331 332
316 316 315 315 315 316 316 316 318 319 318 318 318 317 315 317 316 314 316 319 318 318 318 318 317 317 318 318 318 319 319 319 319 319 319 319 319 320 322 323 322 329 334 334 334 337 338 338 337 338 340 341 341 340 339 338 335 333 334 334 334 336 336 335 335 335 335 334 333 331 330 331 330 331 333 332 332 333 331 330 329 327 327 328 330 330
317 318 317 316 315 316 316 317 318 318 318 318 318 316 315 316 315 314 316 318 318 319 319 318 316 316 318 318 318 319 319 319 318 318 319 319 320 320 319 322 321 325 332 334 336 338 338 337 336 336 337 339 340 339 339 339 336 335 336 335 336 337 336 336 336 335 335 334 333 331 330 331 331 331 332 332 331 331 330 329 326 324 326 327 329 330
317 318 318 317 316 316 316 317 318 318 316 316 317 316 315 316 316 316 317 317 316 316 318 318 314 314 317 317 318 318 318 318 319 319 319 318 319 319 320 320 321 322 326 334 339 339 338 337 336 336 336 336 335 334 337 339 336 335 334 334 336 337 336 336 335 335 335 334 332 330 329 331 332 331 331 330 330 329 327 326 325 324 327 327 330 332
317 318 318 317 317 316 317 317 317 318 315 314 316 317 317 316 315 316 316 316 313 313 317 318 314 313 316 317 318 319 318 318 319 318 318 319 319 319 319 318 320 319 322 334 341 340 339 339 337 337 337 335 330 328 334 337 335 334 333 334 335 335 334 334 335 334 333 333 332 330 329 330 331 330 330 328 328 328 326 326 325 326 328 328 330 332
318 318 317 317 317 317 316 316 316 317 315 314 316 317 317 316 316 316 315 315 315 315 317 317 315 313 313 316 319 319 319 319 319 319 318 319 318 320 322 321 322 321 323 332 338 340 340 340 338 338 339 338 334 331 335 337 334 333 333 333 335 334 331 331 333 333 331 330 330 330 329 329 330 331 330 328 328 328 327 326 327 327 328 329 330 331
319 317 318 318 317 317 316 316 316 316 315 315 317 317 316 317 317 317 316 315 315 315 313 314 315 314 312 315 319 319 317 317 317 318 321 321 321 325 327 327 325 324 327 331 336 339 339 337 338 339 340 341 339 335 336 336 333 333 334 333 334 332 328 328 330 330 331 330 329 329 329 329 330 330 329 327 327 327 327 327 327 328 329 330 331 331
319 317 318 317 317 316 316 316 316 315 316 316 317 316 316 317 317 317 316 314 314 315 313 313 314 313 312 314 317 318 317 319 321 322 325 326 325 327 327 327 326 324 328 332 335 338 339 337 337 338 340 341 340 336 334 333 331 333 334 333 333 331 328 327 329 329 330 331 330 329 329 328 328 328 327 327 326 326 327 327 327 328 329 330 331 331
318 318 318 317 317 317 316 316 316 316 317 317 317 316 316 317 317 317 316 314 313 314 313 313 314 313 312 313 317 319 321 325 327 328 329 328 327 327 326 327 327 325 330 335 336 338 338 337 336 338 339 340 339 337 334 335 335 334 333 333 333 330 327 328 330 329 327 327 328 329 329 328 325 325 327 328 328 327 327 326 326 327 329 330 330 330
317 317 318 318 318 318 317 317 317 317 317 317 316 316 315 315 315 314 313 313 313 313 313 313 314 314 312 313 318 322 324 327 328 329 329 328 327 326 326 326 327 327 331 334 336 336 336 336 337 339 338 336 338 338 337 337 337 335 333 333 333 330 327 328 329 329 327 326 328 329 330 328 324 324 326 328 327 326 325 324 324 326 328 330 330 328
316 316 316 317 318 317 317 316 316 316 316 317 316 315 314 313 313 313 312 313 313 313 314 314 314 313 312 316 322 322 324 326 327 328 327 327 328 329 327 327 328 330 332 332 334 334 334 335 337 337 336 335 336 337 337 337 335 334 334 334 333 330 329 327 327 329 329 328 329 329 330 328 326 325 325 326 327 326 325 323 325 326 327 329 329 326
315 316 316 317 317 317 316 315 315 315 315 316 315 314 314 312 313 313 313 313 313 314 315 315 316 313 313 321 325 323 324 326 326 327 327 327 328 329 330 329 328 329 332 333 335 333 332 335 337 337 335 335 336 335 336 336 334 334 334 334 334 332 329 327 326 329 331 329 329 330 329 329 328 326 325 325 328 327 325 324 326 326 327 329 328 325
314 315 316 316 316 316 316 315 316 316 316 316 316 315 314 313 313 313 312 314 315 316 316 317 317 314 316 323 325 323 325 326 326 326 327 327 327 328 330 331 330 328 330 334 335 333 330 331 333 334 332 331 333 334 334 335 335 334 334 334 334 332 329 327 326 329 331 331 330 330 330 329 329 327 324 325 327 326 324 324 325 326 329 330 327 325
314 315 316 316 317 317 316 315 317 316 315 316 316 315 313 313 314 312 313 315 316 316 316 316 316 317 320 323 323 324 326 325 325 327 328 329 329 330 330 331 330 329 331 333 332 331 330 330 330 332 332 330 331 333 334 334 334 335 335 334 334 333 329 327 328 330 331 331 330 330 330 329 328 327 324 323 323 323 323 323 324 326 329 330 327 325
313 315 317 317 317 317 316 317 316 315 315 316 315 314 314 315 315 314 314 316 316 316 316 316 317 318 321 324 324 324 325 325 326 329 331 331 331 330 328 328 328 329 332 333 332 330 330 331 331 332 334 333 332 333 334 334 334 335 335 335 334 332 330 329 330 332 332 332 330 330 330 329 327 325 322 321 321 322 322 322 324 327 329 329 327 325
314 315 316 316 316 317 318 318 317 317 316 315 314 315 316 317 315 314 314 315 316 316 315 315 315 316 320 324 325 326 326 326 327 329 331 330 330 329 328 327 327 329 331 333 333 331 331 332 331 332 332 332 333 333 333 334 335 334 334 334 334 333 332 331 332 333 332 332 331 331 330 328 325 322 320 320 320 320 322 323 326 329 330 329 328 326
315 314 315 316 316 316 318 317 316 317 317 315 315 316 317 316 315 314 314 314 316 316 316 315 314 319 323 325 326 327 327 327 328 328 328 328 329 329 328 328 328 330 330 331 332 332 332 332 332 333 333 332 333 334 333 333 334 334 334 334 335 335 334 333 333 333 332 332 332 331 329 326 323 320 320 322 321 321 322 324 328 330 329 329 329 326
317 315 315 316 316 317 317 316 315 316 317 316 316 316 317 316 315 315 315 314 314 315 316 314 315 323 326 325 326 328 328 328 329 328 327 327 328 328 328 328 328 329 329 329 330 331 331 332 332 333 333 333 333 333 334 334 335 335 334 334 336 336 336 334 334 334 333 333 332 330 327 323 320 319 321 323 322 322 323 326 329 329 328 328 329 326
317 317 317 317 316 316 315 316 315 315 315 316 315 314 315 315 316 317 317 316 314 315 317 315 317 325 326 324 326 327 327 327 327 326 326 326 326 326 326 327 327 327 327 327 328 328 329 330 331 332 332 333 333 333 332 333 334 335 334 334 335 336 336 335 334 334 334 332 331 330 326 321 318 320 322 323 322 322 324 328 330 327 326 328 328 327
319 318 318 318 319 317 316 316 316 316 316 316 314 314 314 314 314 314 315 315 315 315 316 316 321 326 325 323 325 326 325 326 326 325 325 325 325 325 325 326 326 326 325 325 325 326 326 327 328 330 331 332 333 332 332 333 333 333 333 333 333 334 334 334 333 333 332 331 331 329 326 322 320 321 322 322 321 322 325 328 328 326 326 327 327 325
320 319 318 319 319 318 317 317 317 318 318 317 317 318 319 319 318 317 317 317 317 316 316 317 322 326 325 324 324 325 324 324 325 325 325 324 323 323 324 325 325 324 323 323 323 323 324 324 326 329 330 330 331 331 331 331 330 331 331 330 331 331 332 332 332 331 331 332 331 329 326 324 322 322 323 321 321 323 326 327 328 327 326 326 324 320
321 320 319 319 319 318 318 318 318 318 318 319 320 321 321 321 322 322 321 321 320 319 318 319 322 325 325 324 324 323 323 323 323 323 323 322 322 322 322 323 322 321 321 321 321 321 321 322 323 326 327 328 329 329 329 328 328 330 330 329 330 331 331 331 332 331 331 331 331 330 327 325 323 323 323 321 322 324 325 326 328 327 325 325 322 318
320 321 320 319 319 320 321 319 318 319 318 319 320 320 321 322 323 323 322 322 322 321 319 320 323 325 324 324 323 322 322 322 322 322 322 321 321 321 322 321 320 319 319 318 319 319 319 319 319 320 321 323 324 325 326 326 327 329 330 329 330 330 331 331 332 331 330 330 331 330 328 326 324 324 323 322 323 324 324 326 327 325 324 326 324 322
319 321 322 320 320 321 322 320 321 321 319 319 320 320 321 322 323 324 323 323 323 322 321 321 324 325 324 324 322 321 320 319 319 320 320 320 320 320 320 320 319 318 317 316 316 316 317 317 316 316 316 318 320 321 323 325 327 329 329 329 330 330 330 331 331 330 329 330 330 329 328 326 325 325 324 323 324 325 326 326 324 323 325 326 324 324
319 321 321 321 321 321 320 320 320 319 319 321 320 319 321 322 323 324 323 323 323 322 323 323 325 325 324 323 322 320 318 317 317 318 318 318 318 319 318 317 317 316 315 315 315 314 315 314 314 315 316 317 318 319 322 325 326 328 329 329 330 330 331 331 330 329 330 330 329 329 328 326 326 326 325 324 325 326 326 324 322 323 325 325 325 326
319 320 320 321 321 320 319 319 318 318 319 319 319 319 321 321 322 323 323 323 322 322 322 323 324 325 323 321 319 318 317 315 315 315 315 315 316 317 317 316 315 314 313 313 313 313 313 312 312 314 316 318 319 320 322 324 326 327 328 328 329 329 329 330 330 330 330 329 328 328 327 326 326 325 325 326 325 325 324 323 323 325 325 325 325 325
319 319 320 320 319 318 318 318 318 319 318 317 318 321 321 321 322 323 322 322 322 322 323 322 322 322 320 317 316 316 315 314 314 314 313 313 314 314 315 314 313 312 312 311 311 311 311 310 310 310 312 316 319 320 322 323 325 325 326 327 328 328 328 329 330 329 329 328 327 328 327 326 325 325 325 325 325 324 324 324 325 326 325 324 325 324
319 318 318 318 318 318 318 317 318 319 319 319 319 319 319 320 321 321 321 322 322 322 322 321 320 318 316 314 313 314 314 314 313 312 311 311 312 312 312 312 311 311 311 310 310 310 309 309 309 309 310 313 317 318 319 321 323 324 325 326 327 327 327 328 329 329 329 329 328 328 327 325 325 326 325 324 324 325 325 325 325 325 324 324 324 323
318 316 318 319 318 317 318 318 317 318 319 320 318 317 318 318 319 320 319 320 320 320 320 321 320 316 314 313 312 312 312 312 311 311 310 310 310 310 310 310 310 310 309 309 309 308 308 308 308 309 309 311 314 316 317 318 319 321 323 325 326 327 327 327 328 329 329 329 327 326 325 323 322 324 325 324 325 326 326 325 325 324 324 324 323 322
318 316 316 318 317 317 317 318 319 318 318 318 317 316 317 317 318 318 317 317 318 318 318 320 320 316 313 312 311 310 310 309 309 310 310 309 309 309 308 309 309 309 308 308 308 307 307 307 307 308 308 309 311 314 315 316 317 318 319 321 322 324 325 326 328 329 327 327 326 324 323 322 320 322 324 325 325 326 325 325 325 325 325 323 323 322
318 317 315 316 316 316 316 319 320 319 319 318 316 315 315 316 316 316 315 315 316 316 317 318 317 314 312 311 309 308 308 308 308 308 308 308 308 308 307 307 307 307 307 307 307 306 306 306 306 306 307 309 310 311 312 314 316 317 318 318 318 319 320 321 326 329 327 326 326 325 325 324 322 322 325 325 325 325 325 325 325 325 325 323 322 322
316 316 315 316 315 315 316 319 319 320 319 316 314 313 314 315 314 314 313 312 313 314 315 315 313 311 310 309 307 306 306 306 306 306 307 308 307 307 306 306 306 305 306 306 305 305 305 306 306 306 307 309 310 311 311 313 314 315 317 318 318 317 316 315 318 325 327 325 325 326 326 325 325 325 326 325 325 325 325 325 326 325 324 322 321 320
314 314 315 315 315 314 315 318 320 320 317 314 312 311 313 313 313 312 311 310 310 312 312 312 310 309 309 308 307 306 305 305 304 304 305 306 306 306 305 305 305 304 304 305 304 304 304 305 307 307 307 308 310 312 313 313 314 315 316 318 318 319 318 315 314 319 324 324 324 325 325 325 326 326 326 326 325 325 325 325 325 324 323 322 320 319
314 314 314 314 314 314 315 318 319 317 314 313 312 311 311 312 312 312 311 309 308 309 310 310 309 308 308 307 306 306 305 304 304 303 304 304 305 305 304 304 303 303 303 303 303 303 303 303 305 306 307 308 310 311 312 313 313 314 315 317 318 318 319 318 315 315 318 321 323 323 323 324 325 326 326 325 325 324 325 325 323 323 322 321 320 319
314 315 314 314 314 315 315 316 316 315 313 312 311 311 310 311 311 311 311 309 307 308 309 309 308 308 307 307 306 306 306 305 304 303 303 304 304 303 303 302 302 302 302 302 302 302 301 301 303 304 306 307 308 309 310 311 312 313 313 314 315 316 317 317 315 313 313 316 319 320 320 321 322 323 323 323 323 323 324 323 322 322 321 320 319 319
313 314 315 314 314 314 315 315 315 316 315 312 310 310 310 310 310 310 311 309 307 307 308 307 307 306 307 307 306 307 308 306 304 303 303 303 302 302 302 302 302 301 301 300 300 301 300 300 300 301 303 305 306 306 307 309 310 311 312 312 312 312 313 314 314 313 312 313 316 318 318 319 320 320 320 321 322 322 322 321 319 319 318 318 317 316
312 312 314 313 313 313 314 315 315 315 313 310 309 309 310 310 310 310 312 310 306 306 307 307 307 307 307 306 305 306 308 306 303 302 302 302 301 301 301 301 301 301 301 300 299 299 300 300 299 299 299 301 302 303 304 306 307 308 308 308 309 310 311 311 312 312 312 312 314 315 316 317 318 318 318 319 320 320 320 318 318 318 318 317 316 315
313 312 312 312 312 313 314 315 313 312 310 308 309 310 310 310 309 312 315 311 306 305 307 306 306 306 306 305 303 303 304 304 302 302 302 301 301 301 301 301 300 301 301 301 300 299 298 299 300 299 298 298 298 299 300 301 303 304 303 303 304 305 306 307 308 309 310 311 312 313 314 315 316 316 317 317 317 317 317 317 317 317 317 317 316 316
312 312 311 312 312 313 314 314 312 310 308 307 308 310 309 309 311 313 313 308 305 305 305 304 304 303 303 303 302 301 301 301 301 301 300 300 300 300 300 300 299 299 300 300 301 300 299 298 298 299 298 298 297 298 298 299 299 300 300 301 301 300 301 302 304 306 308 309 310 311 312 313 313 314 314 314 314 315 315 316 316 316 316 316 317 316
311 311 311 312 313 314 313 313 312 310 307 307 308 309 309 310 312 310 307 304 304 304 303 302 302 301 301 301 301 300 301 301 300 300 300 300 300 299 299 299 299 299 299 299 300 300 300 300 299 298 298 298 297 298 298 298 300 300 299 300 300 299 299 300 301 303 304 306 307 309 310 310 310 311 311 311 311 312 313 313 314 314 314 314 315 315
310 311 311 310 311 312 312 311 311 310 307 307 308 308 308 309 309 306 304 303 303 302 302 301 301 301 301 301 301 301 301 300 300 300 300 300 300 300 300 300 300 300 300 300 299 299 300 300 300 300 299 298 298 298 297 298 300 301 301 301 300 300 299 299 299 299 300 301 302 303 304 304 305 306 306 306 307 308 309 311 311 311 310 310 310 310
308 310 311 309 308 310 310 309 309 308 306 307 307 307 307 307 306 305 304 303 302 302 301 301 301 300 300 300 300 301 300 300 300 300 300 300 300 300 300 300 301 301 301 301 300 300 299 299 300 299 300 300 299 299 298 298 298 299 300 302 302 301 301 300 299 299 298 298 298 299 299 299 300 300 300 300 301 302 303 304 305 306 307 308 307 307
308 309 309 308 308 308 308 307 307 307 306 307 307 306 306 305 304 304 303 302 302 302 301 301 301 301 301 301 301 301 300 301 301 301 301 301 301 301 301 301 301 301 301 301 301 301 301 300 299 299 299 299 300 300 299 299 299 298 299 300 301 302 302 301 301 301 300 299 298 298 298 298 298 299 299 299 299 300 301 302 302 303 304 306 306 306
309 309 309 308 308 308 308 307 307 307 307 307 306 306 305 304 304 303 302 302 302 301 301 301 301 301 301 301 301 301 301 301 301 301 301 301 301 301 301 301 301 301 301 301 301 301 301 301 300 300 300 299 300 300 300 300 300 300 299 298 298 300 302 302 302 302 302 301 300 300 300 300 300 299 299 299 299 301 302 303 304 304 304 305 306 305
309 309 309 309 308 309 309 308 307 307 306 306 306 305 305 304 303 303 302 302 302 302 302 302 301 302 302 301 301 301 301 301 301 301 301 301 301 301 301 301 301 301 301 301 301 301 301 301 301 301 301 300 300 300 300 300 300 300 301 300 299 299 300 301 301 301 301 302 301 301 302 302 302 300 299 298 299 300 301 302 303 305 305 305 305 305
309 309 309 309 308 308 309 308 307 306 306 306 306 305 305 304 303 303 303 302 302 302 302 302 301 301 301 301 301 301 300 300 300 300 300 300 300 300 300 301 300 300 301 300 301 301 301 301 301 300 301 301 300 300 300 300 300 300 300 301 301 301 300 300 300 299 299 299 300 301 301 302 302 302 300 299 298 298 298 299 300 302 304 305 305 305
309 308 308 308 307 307 307 306 306 306 305 305 305 305 305 304 304 304 303 303 302 302 302 302 301 301 301 301 300 300 300 299 299 299 299 299 300 300 300 300 301 301 301 301 301 301 300 300 300 300 300 300 300 300 300 300 300 300 300 300 300 301 301 301 301 300 298 297 298 300 300 301 302 302 302 301 300 299 299 299 297 297 299 300 301 303
308 308 308 308 307 307 306 306 306 305 305 305 305 305 304 304 304 304 303 303 303 303 303 303 302 302 302 301 301 301 300 300 299 299 299 299 299 299 300 300 300 300 300 300 300 300 300 300 300 300 300 300 300 300 300 300 300 300 300 300 300 300 301 301 301 301 300 298 298 299 300 300 300 301 301 301 301 301 301 301 299 297 297 297 297 298
307 307 307 307 307 307 306 306 306 305 305 305 305 304 304 304 304 304 304 303 303 303 303 303 303 302 302 302 301 301 301 300 300 300 300 300 299 299 299 300 300 300 300 300 300 300 300 300 300 300 299 299 299 299 299 299 300 300 300 300 300 300 300 300 300 300 300 300 300 300 300 300 300 300 301 301 301 301 301 302 301 299 298 298 297 297
Wind_Speed
11 7 8 8 9 11 12 14 14 15 17 14 11 8 10 8 9 11 7 13 9 5 6 6 8 9 10 11 12 12 12 13 14 13 14 16 18 21 22 24 27 26 19 17 21 20 17 18 19 17 15 17 18 15 13 15 14 14 17 19 18 18 19 20 21 23 24 25 23 22 22 20 21 21 21 21 20 21 19 17 19 19 19 19 18 17
11 8 8 11 13 13 14 15 14 16 18 12 8 8 9 8 7 8 7 12 9 4 5 6 9 11 11 11 13 13 12 12 12 12 13 18 17 16 19 25 31 30 23 20 21 20 19 20 20 18 18 19 18 16 15 17 17 16 17 19 20 18 19 20 20 21 22 23 21 21 20 19 21 21 20 20 18 19 17 14 14 16 17 17 17 17
8 8 12 15 13 13 14 12 9 13 15 9 5 8 9 7 5 8 8 7 7 4 4 6 9 12 13 13 13 13 11 14 18 13 14 17 17 15 19 22 24 25 28 28 24 22 23 22 19 19 20 21 19 17 16 17 18 17 15 15 17 17 17 18 19 19 21 22 21 20 19 19 21 21 20 19 16 16 17 14 13 15 16 16 14 14
6 11 17 16 13 15 13 8 5 7 8 6 5 8 8 9 8 7 8 10 9 5 1 4 9 9 11 12 10 11 12 15 21 20 16 18 19 18 20 22 22 23 30 32 28 27 27 24 22 23 23 22 20 19 17 18 19 17 13 11 11 12 13 15 16 16 19 21 21 20 19 19 20 21 19 19 17 16 16 16 15 14 13 14 13 12
11 12 12 15 16 15 10 6 7 6 5 7 8 9 10 11 12 10 10 11 9 4 3 3 8 7 9 12 10 11 14 16 19 22 18 18 19 19 20 23 23 21 26 33 33 32 30 28 26 26 25 24 22 21 19 21 21 17 12 10 9 9 11 13 13 14 16 18 19 19 18 19 20 20 18 18 18 17 15 15 14 13 12 13 12 11
13 12 6 9 9 7 6 7 9 8 6 8 10 12 13 14 14 14 13 11 8 7 6 7 7 6 9 14 15 13 14 17 18 19 19 18 19 19 19 21 21 20 18 28 34 34 32 29 26 25 25 25 24 23 21 23 21 16 13 12 11 10 11 13 14 14 14 15 17 16 17 20 20 20 19 18 19 18 15 13 14 14 13 12 12 12
9 15 10 8 6 5 7 9 10 10 8 7 9 12 14 15 15 15 15 11 7 7 6 8 8 5 7 10 11 12 13 16 15 16 17 17 17 18 19 21 21 21 19 25 32 32 31 26 24 26 27 28 28 25 23 23 20 17 17 17 14 13 12 13 15 14 13 12 14 15 17 20 19 19 19 18 17 18 16 14 14 14 11 10 12 13
9 14 10 8 10 10 8 8 10 12 9 6 9 12 14 14 13 13 13 10 7 7 8 11 10 6 8 8 9 13 13 11 9 11 13 14 15 11 8 10 7 6 9 22 31 29 30 28 27 28 29 30 29 28 25 21 19 19 20 19 17 14 13 14 15 15 14 13 16 18 18 19 19 18 18 18 18 18 18 16 14 12 10 9 11 12
9 11 8 8 9 8 8 10 11 12 10 8 12 14 10 7 8 9 10 9 8 8 8 10 10 8 7 7 9 12 14 11 10 9 4 4 6 5 10 11 10 15 11 12 24 23 24 27 28 30 31 31 30 31 28 20 17 20 21 20 17 16 15 14 14 14 15 15 17 20 20 20 20 17 16 18 20 19 18 17 13 11 11 10 10 10
7 9 10 9 8 7 9 11 12 12 9 9 13 12 5 3 7 9 8 8 7 8 9 10 10 9 7 6 7 8 9 9 6 3 5 7 8 11 13 13 11 13 12 10 16 15 19 25 27 29 29 30 31 29 27 21 19 23 23 20 19 17 15 15 16 15 15 16 17 19 21 22 22 19 18 19 21 21 19 17 14 12 12 11 10 11
7 8 9 10 8 8 11 11 11 9 7 8 10 8 5 5 7 8 7 6 6 7 10 12 13 11 8 6 5 3 0 4 4 6 9 9 10 12 12 12 12 13 10 11 12 11 13 16 19 20 19 23 26 24 23 21 20 25 26 24 21 19 17 19 20 18 16 16 17 19 21 23 23 21 21 21 21 21 19 17 15 13 13 11 10 11
11 8 6 8 7 6 10 11 11 10 9 9 7 5 5 5 6 7 7 7 7 8 10 13 15 12 9 6 4 5 7 10 8 7 8 7 9 11 12 12 12 12 9 9 11 11 10 8 9 12 14 15 17 19 21 18 17 25 30 27 24 22 21 22 22 20 18 17 18 20 22 24 24 22 22 21 19 19 18 16 15 14 13 12 10 11
11 11 9 10 9 11 11 8 9 12 10 8 7 6 6 6 6 7 6 6 7 8 9 12 13 10 7 4 2 3 8 13 11 8 9 9 11 12 12 12 10 9 7 2 8 10 10 9 8 8 10 11 11 15 18 16 17 26 30 29 26 25 24 22 21 21 21 19 20 22 24 26 25 24 24 21 18 17 16 15 15 15 14 11 11 12
8 11 13 13 11 12 13 8 7 8 7 8 8 7 7 6 6 6 6 6 6 7 9 10 8 7 6 3 10 9 10 14 15 14 15 16 17 17 16 16 13 8 6 7 8 9 10 9 6 6 11 13 13 15 15 15 20 27 30 30 28 27 25 23 21 23 23 21 21 23 26 28 27 26 25 21 18 16 15 15 15 15 13 11 13 13
8 8 11 12 9 11 13 12 10 8 7 9 9 8 8 6 6 6 5 5 5 4 7 7 5 5 5 1 7 10 13 16 16 15 14 15 15 13 13 16 17 12 6 6 9 10 11 11 8 7 12 15 16 16 14 17 22 25 28 29 29 29 27 24 23 23 24 23 22 24 27 28 27 25 24 22 19 16 17 17 16 15 13 12 14 14
10 8 8 12 10 10 13 12 13 12 8 7 8 9 8 7 7 5 4 5 3 3 5 5 3 2 2 4 6 11 14 14 12 10 10 10 9 7 9 12 14 12 9 7 7 6 6 9 11 12 13 15 16 15 15 20 23 22 24 27 30 29 26 25 25 24 25 25 25 27 28 29 27 25 25 24 21 19 19 18 17 15 14 13 14 15
8 7 8 13 12 12 12 12 12 12 6 4 7 8 8 9 9 5 5 6 4 4 5 4 3 1 4 4 9 12 10 10 10 9 10 9 8 7 10 11 10 10 11 10 7 2 6 9 12 14 15 16 16 14 16 21 22 20 21 24 27 29 27 27 27 26 26 26 27 29 30 31 28 26 27 27 24 22 19 18 18 15 13 13 13 15
6 5 8 12 12 12 14 13 13 13 10 6 5 6 7 9 9 5 5 6 6 7 5 5 8 5 3 1 6 9 7 8 8 7 8 8 7 6 7 7 6 6 10 11 10 6 2 4 7 9 12 13 12 13 17 20 20 19 21 24 28 29 29 29 30 29 28 27 28 31 33 32 30 29 29 28 26 24 21 19 18 16 15 15 14 16
5 4 7 13 11 10 12 12 10 13 15 11 7 6 6 6 6 5 4 5 6 6 4 7 10 3 4 2 3 6 6 7 6 5 6 6 7 7 8 9 8 10 13 14 13 13 12 6 2 1 3 5 5 8 13 15 16 18 21 26 29 28 28 30 31 30 29 28 29 32 34 33 31 32 30 27 26 25 23 20 18 18 18 17 15 15
3 3 5 10 9 6 7 8 7 8 12 12 10 8 6 5 4 3 3 4 6 6 5 7 7 1 6 4 4 6 6 5 4 5 7 8 9 10 11 12 13 14 15 16 16 16 15 10 6 4 4 4 3 3 6 8 11 15 20 24 27 27 26 26 28 28 26 27 30 33 33 33 35 35 30 27 27 27 24 21 19 21 20 16 15 13
2 4 4 6 6 5 5 7 8 8 8 9 8 8 8 5 4 5 4 4 6 5 4 6 3 3 4 5 6 6 6 7 6 6 6 7 10 12 14 14 14 15 15 16 17 16 16 13 8 6 5 5 5 5 6 9 10 12 16 20 23 25 25 23 24 25 25 26 32 34 33 35 37 36 31 28 28 27 24 21 20 21 18 15 15 13
3 2 4 4 4 5 6 7 8 7 6 6 7 8 8 7 6 7 6 6 7 6 5 5 1 4 3 3 5 7 8 10 10 8 6 8 11 13 15 15 15 16 16 17 17 16 16 16 12 8 6 6 6 6 7 9 11 11 12 15 17 19 21 23 24 26 27 28 31 32 33 36 37 34 32 30 29 27 24 22 20 19 18 16 16 14
6 2 3 5 5 6 8 7 4 8 11 10 7 4 4 5 4 5 6 5 5 5 5 3 2 4 2 3 5 5 8 12 14 12 10 11 13 14 15 15 16 17 18 19 18 17 17 16 14 11 9 8 8 8 8 10 12 9 10 10 11 14 16 20 23 24 26 27 28 29 31 34 34 34 32 31 30 28 24 21 20 20 19 16 15 13
4 2 4 6 4 5 9 8 6 8 9 7 5 7 7 7 7 4 5 5 4 3 2 1 2 3 1 2 8 9 11 12 12 13 11 12 12 14 16 16 17 19 19 19 18 19 18 16 15 13 12 11 11 11 10 13 15 7 5 6 6 13 16 20 21 22 24 25 26 28 30 31 32 33 32 31 30 27 24 22 21 20 18 15 14 13
2 2 5 6 3 3 6 7 5 6 6 3 3 6 8 9 10 5 4 5 3 4 3 1 1 2 1 0 8 13 11 9 10 11 11 12 11 12 13 14 16 17 18 19 19 19 19 18 18 18 17 16 15 15 12 13 15 6 4 4 4 13 18 21 22 21 23 23 25 28 30 31 33 33 32 31 29 27 26 24 22 20 17 15 14 14
1 1 2 3 3 3 4 4 2 3 4 4 3 5 7 10 10 5 2 3 3 6 5 1 3 3 3 3 9 11 9 8 9 10 11 12 12 12 12 13 14 15 16 19 19 20 20 20 21 21 21 20 18 17 15 13 12 6 4 6 9 17 21 24 24 23 23 24 26 29 31 33 34 34 33 31 29 28 27 25 22 20 18 16 15 15
1 1 1 1 5 4 0 1 2 3 3 6 6 5 6 7 8 6 1 2 3 4 5 2 6 7 5 5 10 9 9 8 8 9 11 12 12 12 12 13 14 14 16 17 18 20 21 21 22 22 21 21 19 17 15 12 8 4 3 5 9 16 20 23 26 27 27 26 27 30 32 34 35 33 31 29 29 28 25 23 23 20 18 16 16 16
2 3 2 3 6 6 1 2 3 6 6 7 8 5 6 8 9 8 5 5 4 1 2 2 4 6 5 8 9 9 8 7 7 10 11 12 13 12 12 13 14 15 17 18 19 20 21 21 22 22 21 20 18 16 13 10 7 3 2 6 8 11 17 22 26 30 30 27 29 33 35 35 34 32 31 29 28 28 24 23 23 20 19 19 18 16
3 3 1 2 5 5 3 2 1 6 9 6 3 3 7 9 10 8 7 6 4 1 1 2 4 6 7 8 9 9 8 7 8 11 12 13 14 14 14 15 17 18 19 20 20 21 21 22 22 22 23 21 17 15 13 9 7 5 3 7 9 9 15 23 26 28 30 31 33 35 36 36 34 32 32 30 28 27 25 23 23 23 22 21 20 18
4 2 0 4 5 3 3 0 1 7 8 2 8 11 10 9 10 9 8 8 6 5 5 7 9 8 6 6 7 8 9 10 11 13 14 15 15 15 15 16 18 19 20 20 20 21 21 22 22 22 23 23 20 16 14 12 9 7 5 5 9 11 14 21 24 25 30 34 35 36 37 36 35 33 32 30 27 26 26 25 25 24 22 20 19 18
4 1 2 4 5 3 2 2 2 5 1 9 12 13 11 10 10 9 9 10 7 5 2 6 10 8 5 7 9 9 11 12 13 15 16 16 16 15 16 17 18 19 19 20 20 20 20 21 22 23 23 23 22 18 15 13 10 6 4 5 11 14 15 20 24 25 29 33 34 36 37 35 33 33 31 30 29 28 26 25 24 23 22 20 19 17
2 2 1 2 4 4 3 3 5 4 10 13 11 12 11 9 9 9 9 9 8 7 5 1 6 5 5 8 10 12 14 15 15 16 15 15 16 16 16 17 18 18 19 20 20 20 21 22 23 24 24 23 22 20 16 13 10 8 7 2 5 10 12 18 26 28 29 30 31 34 35 33 33 32 30 28 28 27 26 25 24 22 20 20 19 18
1 2 2 1 2 4 3 3 6 7 6 6 7 9 9 7 8 9 10 11 10 8 4 2 4 5 6 8 9 10 12 14 16 17 15 14 16 17 17 17 18 18 19 20 20 21 21 22 23 24 25 24 23 22 19 14 12 12 11 9 5 6 8 9 22 31 31 29 30 31 33 35 34 33 31 29 28 29 29 28 26 24 23 22 21 21
2 2 2 1 1 3 4 7 4 6 3 2 4 6 7 8 9 10 10 11 12 9 6 6 7 7 8 8 9 10 11 14 17 18 18 17 16 17 18 18 18 18 19 20 22 23 23 23 24 25 25 25 23 22 20 18 16 14 12 11 9 9 15 16 16 29 33 29 29 32 33 34 35 36 36 35 34 34 33 30 28 28 28 26 24 24
3 2 2 1 2 2 3 4 3 2 2 4 6 8 7 7 10 12 12 12 12 10 8 9 9 9 10 10 11 12 14 16 19 21 21 21 19 18 18 19 19 19 20 21 22 23 24 24 25 26 26 26 24 21 21 20 17 14 12 12 11 9 11 17 23 26 29 28 28 28 26 27 32 36 37 36 35 34 32 30 29 29 29 29 27 25
3 3 3 1 2 2 1 2 1 1 4 5 7 9 8 4 6 8 9 11 12 11 8 7 8 8 9 10 11 12 14 17 21 23 23 20 19 20 20 20 20 19 19 20 21 22 23 24 24 26 26 25 25 23 22 21 18 16 15 13 12 12 9 10 18 24 23 24 24 22 20 21 25 29 30 30 31 30 28 28 28 28 28 28 27 25
4 3 3 1 1 1 1 4 3 3 3 5 6 7 7 5 3 2 4 7 11 11 9 6 6 7 7 8 9 9 9 12 16 20 22 20 19 20 20 20 20 20 20 21 21 22 23 23 23 23 23 24 25 25 24 22 20 19 19 17 16 17 14 9 13 21 23 23 22 20 20 20 22 23 23 25 27 28 28 28 27 27 27 26 26 24
6 3 3 1 1 1 0 2 2 2 1 5 6 6 7 4 3 1 2 4 8 11 10 6 4 5 5 5 4 2 2 5 8 12 17 18 18 18 18 18 19 20 22 23 23 22 23 23 23 22 22 23 24 25 23 22 22 21 22 22 22 22 21 18 16 18 21 23 22 19 19 18 20 23 23 24 25 26 27 25 23 23 22 21 21 21
9 5 1 2 3 1 0 1 1 2 2 4 6 7 7 4 2 2 2 2 6 11 12 7 4 5 5 7 10 5 1 3 4 8 14 16 17 19 18 19 19 19 21 23 24 24 23 22 23 24 24 24 24 24 23 22 23 24 25 25 24 24 25 23 20 17 17 19 20 19 18 17 18 20 21 22 22 22 22 19 16 15 14 15 17 17
8 6 4 5 4 2 1 1 2 2 3 5 9 8 6 4 1 2 1 2 6 10 11 9 7 7 6 9 13 10 6 5 6 9 14 15 17 18 18 19 20 20 20 21 22 24 23 23 23 25 26 26 24 24 24 24 23 25 27 27 27 27 26 23 20 18 17 17 17 18 18 16 14 14 14 15 14 14 14 14 13 12 11 13 13 12
3 3 4 5 2 1 1 4 4 2 2 7 12 11 7 2 1 1 1 2 6 8 9 9 9 10 12 14 15 12 11 12 13 14 16 17 18 19 20 21 21 21 20 21 21 22 23 24 24 24 25 25 23 22 24 25 25 25 25 26 27 27 26 23 20 19 17 17 17 17 17 15 14 12 11 11 10 9 10 10 10 10 9 9 9 8
3 4 4 3 1 2 2 4 4 4 4 11 15 12 9 4 1 3 4 5 7 9 10 11 12 14 18 20 20 18 17 17 17 16 17 17 17 17 17 19 21 21 21 21 22 22 23 23 23 23 23 22 22 21 22 23 25 25 24 25 25 25 23 21 19 18 18 17 17 16 16 15 14 13 12 11 10 10 10 10 10 10 8 7 6 6
4 2 1 2 3 3 4 4 3 2 6 15 14 7 8 6 4 8 9 10 11 11 13 15 15 15 18 19 18 18 18 17 17 18 18 18 17 17 16 17 20 22 21 21 21 22 22 22 22 22 22 21 20 20 19 20 23 24 24 24 23 22 21 20 19 18 17 17 17 16 15 14 13 12 11 10 9 9 9 9 8 8 9 8 6 5
6 4 1 2 3 2 4 4 2 0 5 12 10 6 9 10 10 12 11 11 12 12 15 18 18 18 20 21 20 19 19 18 17 16 16 15 14 14 15 15 17 20 22 22 21 21 21 21 21 20 21 20 20 20 19 19 19 21 22 22 20 20 20 20 19 18 17 17 16 16 15 14 12 12 12 11 11 11 10 10 8 7 9 10 8 6
7 7 7 7 5 6 6 3 1 3 7 12 14 13 14 15 15 15 15 14 14 13 14 17 17 17 18 20 19 18 17 16 14 13 12 11 11 11 13 14 16 17 19 20 20 20 21 21 21 20 20 19 19 20 20 20 19 19 19 18 17 18 19 19 19 19 18 17 16 15 15 15 13 12 12 11 11 12 13 12 10 9 10 10 9 8
5 6 7 8 8 10 11 9 9 12 15 16 16 16 16 17 16 17 18 17 16 16 16 16 16 15 14 15 15 15 14 13 12 11 10 11 11 11 12 13 14 14 14 16 17 16 17 19 20 20 20 20 20 20 19 19 18 18 17 16 15 15 16 17 17 17 16 17 16 15 14 14 13 11 10 9 10 11 11 10 10 10 10 9 8 7
2 4 5 6 7 6 6 8 11 15 17 18 18 18 18 17 17 17 18 18 18 17 16 15 14 14 13 13 14 16 15 13 12 11 11 11 10 11 11 11 11 11 11 13 14 13 14 15 16 17 18 18 19 19 18 17 17 16 15 15 15 14 13 13 13 13 12 13 14 14 14 14 12 10 9 8 7 6 5 5 7 9 9 9 10 10
3 6 7 8 7 6 7 12 15 18 19 18 18 18 17 17 17 17 17 17 17 17 15 14 14 14 15 14 15 15 14 12 11 11 10 10 9 9 9 9 10 10 10 11 11 12 12 13 13 14 14 14 15 16 15 15 15 14 13 13 14 14 14 14 13 12 10 10 11 13 13 13 12 11 10 11 10 7 5 3 2 4 6 7 8 10
9 8 8 9 9 8 10 14 17 17 17 17 18 17 17 17 17 17 17 16 16 16 14 13 13 14 16 15 14 14 15 14 11 10 11 11 10 10 9 8 8 9 9 9 9 10 11 11 12 12 12 12 12 12 12 13 12 12 12 12 13 13 13 13 13 14 14 12 11 11 11 12 12 11 10 11 13 13 11 10 8 5 3 4 6 7
10 8 8 9 7 5 7 10 12 11 11 14 17 17 16 17 17 16 16 15 15 14 13 12 11 11 11 12 12 11 12 12 11 11 10 9 8 8 9 8 7 7 7 7 8 9 10 10 11 11 11 11 11 11 11 11 10 10 10 10 11 11 10 9 10 13 14 14 14 13 11 10 11 11 9 9 11 12 13 14 13 11 8 6 2 3
10 8 8 8 7 8 11 13 14 14 12 13 16 16 15 15 15 15 15 14 13 13 13 12 11 10 9 9 9 8 7 7 7 7 8 7 6 6 7 7 6 6 6 8 9 9 9 10 10 10 10 11 11 11 11 10 9 9 9 9 9 9 9 9 8 9 9 11 13 13 12 11 11 11 10 9 9 9 10 11 13 13 13 14 12 7
Wind_Direction
202 208 218 217 225 222 218 225 236 248 250 264 299 291 269 261 234 241 197 165 185 197 197 238 259 255 262 269 267 262 240 218 212 216 244 237 194 173 172 186 209 217 214 212 210 207 197 191 194 189 188 203 207 209 200 181 184 191 184 187 188 187 193 195 196 194 193 195 194 195 195 190 187 184 181 182 179 181 187 189 186 188 189 188 189 188
204 221 227 221 226 229 226 224 226 249 258 269 301 289 276 273 251 251 210 165 166 194 212 244 265 264 259 259 264 266 264 260 240 207 223 247 229 203 197 198 204 202 188 194 208 203 193 196 202 195 190 203 210 211 204 187 191 197 189 193 192 189 195 197 199 201 199 202 203 200 196 190 187 185 184 184 183 184 183 179 185 190 194 199 193 186
205 227 233 228 231 234 235 234 224 243 258 265 272 260 263 270 271 271 246 187 163 183 223 255 266 264 255 247 247 249 246 260 266 238 206 238 246 223 226 227 212 190 167 174 199 202 197 204 208 205 200 201 206 211 208 199 200 203 194 191 189 188 194 195 199 203 199 199 203 200 196 193 190 187 187 188 183 181 183 183 187 188 198 208 198 186
206 226 227 222 230 238 233 231 248 266 266 256 250 248 251 258 263 266 253 234 217 204 190 282 281 273 266 263 253 249 246 248 260 255 221 221 242 235 233 243 229 195 169 171 188 194 199 208 208 210 207 200 201 206 211 209 204 203 189 172 178 185 191 200 205 206 201 199 201 201 197 196 194 190 189 191 186 182 183 186 188 190 202 212 201 193
234 239 222 212 220 229 224 207 225 255 263 243 244 248 250 251 252 252 257 259 250 225 152 239 279 273 260 264 259 251 250 246 249 256 244 217 228 239 234 242 240 215 184 174 179 185 195 206 206 209 207 201 203 203 210 215 203 193 181 165 170 183 191 203 207 206 205 204 205 202 196 196 196 193 193 193 191 189 189 193 196 196 207 215 207 200
244 257 228 212 218 202 210 219 217 227 247 246 233 234 249 259 260 260 264 270 262 239 192 199 249 260 243 241 244 244 238 238 233 240 250 231 222 232 234 238 241 239 211 178 177 183 191 200 203 209 208 209 214 210 215 218 198 182 187 184 176 187 198 203 208 212 213 214 214 208 202 202 197 194 197 198 195 194 194 201 203 201 208 213 208 203
236 254 240 215 218 187 211 232 222 219 232 251 238 222 231 246 257 264 270 275 263 256 250 244 256 270 260 247 251 256 242 236 224 216 233 240 232 228 232 236 231 239 227 183 173 178 184 190 198 208 211 215 216 210 217 217 196 190 200 193 183 188 194 197 204 210 213 218 219 215 213 209 200 195 199 198 196 194 194 202 204 203 208 210 208 205
220 241 234 211 229 225 223 238 224 218 225 242 246 237 228 231 245 255 261 269 271 274 274 267 268 268 269 269 274 281 273 256 243 228 217 224 241 237 241 257 242 272 248 186 174 173 180 190 201 208 209 209 205 198 206 205 195 206 207 195 191 189 187 191 197 201 204 206 207 208 212 212 204 199 198 195 194 195 196 202 206 206 205 206 210 206
215 221 205 190 229 239 228 237 226 217 227 239 248 256 252 240 258 267 260 255 253 257 260 257 256 254 255 256 257 270 277 264 244 248 228 212 269 9 31 12 24 25 24 168 174 173 187 198 203 208 204 197 191 190 197 195 197 214 210 203 200 191 190 194 194 199 199 196 200 205 204 204 202 200 202 202 201 201 201 204 206 205 202 197 200 203
208 216 228 211 215 239 236 240 236 221 221 239 256 270 274 231 257 270 266 262 254 248 253 250 249 258 261 254 248 252 275 276 229 200 46 39 26 31 25 18 17 15 40 127 162 171 196 203 205 210 204 191 185 190 199 199 207 218 211 208 205 195 197 199 196 195 191 192 203 207 198 192 192 196 205 211 209 205 204 206 204 203 200 193 193 198
218 202 240 244 225 230 237 237 239 234 227 242 260 272 256 222 245 259 256 263 264 249 251 250 248 255 261 264 263 218 110 20 59 75 48 30 24 19 11 16 6 0 48 119 150 159 184 199 208 209 193 186 185 187 198 198 204 218 218 211 203 199 203 201 197 194 190 193 202 206 198 187 186 192 202 211 210 204 204 207 203 201 197 189 193 199
243 217 217 255 264 257 247 240 231 220 216 232 248 252 247 230 222 234 234 231 241 249 255 254 249 246 250 268 258 177 115 75 61 56 51 32 11 3 358 1 359 9 54 133 161 164 167 176 215 200 163 176 188 183 193 195 199 218 219 208 198 199 205 202 196 193 194 193 193 200 199 190 186 190 199 207 207 203 204 205 200 198 194 185 192 201
236 238 216 216 235 243 246 245 228 216 205 222 233 220 237 245 223 226 228 221 232 244 249 255 257 248 249 300 5 122 90 72 69 53 35 26 15 2 355 357 1 21 28 242 202 200 198 191 224 222 179 186 201 196 198 194 200 215 213 201 197 200 204 204 197 193 194 192 191 194 193 191 189 189 196 202 202 202 201 199 197 195 192 188 196 202
217 236 222 206 199 215 234 245 230 215 198 216 233 221 222 235 233 228 227 237 247 252 263 274 276 256 244 22 50 65 60 54 59 52 28 18 13 359 355 358 350 349 347 301 271 261 245 220 214 207 190 192 200 204 205 202 206 212 207 199 198 199 202 206 203 196 193 193 192 192 190 190 190 189 190 192 195 200 196 195 198 194 191 195 202 202
222 235 224 220 196 182 213 241 244 233 211 211 225 233 230 232 245 244 233 244 254 269 289 296 290 260 238 67 51 62 62 50 47 49 39 26 11 349 351 2 351 333 324 318 308 303 289 271 253 215 203 203 204 203 206 213 213 208 203 200 197 198 201 206 208 201 196 194 191 190 190 188 187 185 183 184 190 191 188 193 198 194 195 203 204 205
234 241 228 237 229 194 201 225 247 254 238 210 211 227 233 234 248 258 254 259 271 278 275 269 283 329 100 107 58 59 70 72 66 58 52 45 28 1 1 18 9 340 328 350 345 317 286 266 248 231 221 210 207 206 204 211 211 202 201 200 197 199 201 204 208 202 197 197 191 188 187 184 182 183 181 181 182 180 181 190 197 196 199 206 206 208
233 242 236 230 222 221 218 209 227 246 251 230 218 226 237 240 244 251 252 256 253 246 246 228 241 238 130 95 53 58 69 83 95 89 75 67 58 39 23 25 24 356 343 352 352 291 216 215 222 228 222 206 202 207 203 205 207 201 198 198 197 200 205 206 206 200 196 197 193 188 185 182 184 187 181 175 173 173 178 192 198 195 198 206 206 208
236 245 251 239 215 216 229 221 218 227 236 248 240 236 245 244 245 249 245 247 237 237 237 218 229 226 168 110 43 60 63 58 68 82 84 75 63 56 43 39 38 16 2 359 359 359 335 222 220 224 220 211 205 202 199 200 203 199 194 195 195 201 207 207 204 201 195 194 193 188 184 183 186 185 176 169 172 175 180 191 194 189 195 205 207 209
256 252 250 249 231 202 220 234 228 221 225 236 245 243 243 238 238 240 243 249 243 242 248 233 236 281 35 57 80 77 70 56 46 51 65 54 39 35 31 26 21 21 18 12 12 11 9 9 353 255 226 239 224 197 199 202 199 195 195 196 194 199 206 206 204 201 194 192 192 188 185 185 182 176 171 169 174 178 183 186 187 190 196 202 206 209
219 236 245 247 236 197 208 230 237 225 219 227 240 239 237 244 247 242 236 248 252 246 250 245 231 93 32 18 68 83 87 89 77 51 39 24 19 20 21 18 10 12 14 11 13 12 9 9 4 359 347 317 293 229 230 230 213 206 207 204 197 197 202 204 202 199 195 193 190 187 185 183 176 171 170 172 174 179 182 183 189 195 195 197 202 204
187 205 245 248 228 212 214 216 232 242 224 219 232 236 237 242 243 242 231 233 254 254 252 256 235 101 37 5 30 42 55 66 63 59 44 22 16 14 17 19 13 13 12 7 7 8 6 6 2 355 343 327 315 308 294 278 261 238 226 218 204 197 196 197 198 197 195 193 190 187 183 178 175 172 172 174 175 177 178 182 193 195 191 195 197 196
0 220 251 266 241 232 225 211 228 267 280 249 234 240 247 245 242 246 239 221 231 246 258 256 218 88 45 22 27 11 26 45 40 43 49 29 22 16 14 18 20 20 17 11 9 8 8 6 4 1 347 331 328 329 312 293 288 272 252 238 218 206 196 191 192 192 193 193 189 187 185 181 179 175 172 174 176 178 180 185 191 189 189 195 196 197
345 293 269 261 246 255 254 244 274 316 311 288 268 292 320 315 302 275 271 270 252 256 274 277 110 104 83 86 91 37 32 41 33 34 41 29 22 16 12 16 21 23 21 17 14 13 13 7 1 3 354 340 339 334 323 326 329 304 274 263 232 215 199 190 194 194 192 192 189 186 186 186 182 175 172 175 177 179 182 183 184 187 191 195 197 195
328 282 265 247 242 294 283 276 298 306 301 302 330 13 20 4 357 332 310 332 318 288 309 341 80 97 46 85 105 86 55 45 36 37 41 35 26 15 14 17 17 17 16 15 16 14 13 7 1 3 359 351 350 342 333 343 347 325 269 293 247 211 199 192 196 194 189 191 191 185 183 185 182 175 174 177 179 179 178 180 185 189 187 187 189 178
301 273 272 254 247 318 286 264 273 283 288 310 356 9 19 18 10 345 328 15 359 319 2 87 97 77 316 353 101 94 76 57 40 39 41 37 33 24 21 22 18 15 12 11 14 14 14 12 9 10 8 3 356 351 352 353 348 331 241 283 205 189 200 198 192 193 194 194 191 184 182 183 179 175 176 178 177 175 176 181 185 184 178 178 179 168
234 271 293 261 249 264 255 254 276 294 305 310 326 6 22 29 31 17 320 50 34 323 329 74 109 124 201 148 96 90 85 69 41 38 43 36 33 30 28 27 21 17 15 12 12 13 14 14 14 13 13 10 3 360 7 11 357 335 262 252 190 183 199 199 190 193 198 196 192 188 185 182 178 175 176 175 172 173 178 183 182 178 174 171 170 171
220 184 134 221 269 280 154 46 303 256 283 301 300 340 18 29 42 53 39 57 53 328 321 59 115 139 156 99 79 72 71 69 42 34 37 29 27 29 29 29 25 21 20 19 18 16 15 15 13 12 12 12 11 9 12 15 2 332 283 255 207 197 203 197 186 188 191 193 196 192 186 183 180 177 173 170 172 174 178 183 179 173 169 165 170 178
234 245 191 205 269 288 160 151 277 273 264 263 263 290 13 25 33 48 50 40 42 349 333 44 115 125 93 56 57 58 59 60 43 36 33 25 23 26 29 30 27 25 24 23 22 20 18 17 15 15 15 12 13 20 20 13 355 329 246 230 223 219 215 199 183 183 187 190 193 190 184 183 182 177 172 170 174 176 178 180 176 169 167 167 172 175
269 247 200 232 272 300 286 196 232 279 270 263 275 359 28 38 42 51 54 42 44 109 121 109 117 104 76 52 46 45 49 56 51 44 39 33 29 28 31 31 28 27 24 23 23 21 20 20 18 19 22 20 19 27 31 18 351 332 265 225 215 219 223 207 189 185 186 185 187 187 183 182 181 177 174 172 175 178 180 179 174 171 172 174 173 168
307 238 88 284 263 269 287 275 172 252 264 329 48 42 38 50 61 63 48 39 62 94 108 119 106 85 69 64 55 47 52 58 55 49 43 40 35 33 33 33 30 29 26 25 25 23 22 22 22 24 27 28 28 30 36 32 9 344 324 258 215 206 215 207 196 193 189 184 186 186 182 180 179 177 175 174 176 180 182 182 177 173 173 174 170 163
308 314 39 317 289 253 183 111 259 257 77 64 51 44 41 43 54 56 38 29 43 51 58 137 117 91 73 77 67 56 55 54 52 49 45 41 38 35 34 34 34 32 30 30 30 29 27 26 27 30 32 33 35 35 39 40 30 14 351 269 225 214 212 203 193 191 190 187 186 185 183 184 184 182 179 176 175 179 182 182 176 171 171 169 163 161
306 313 1 289 293 273 192 162 247 224 97 76 44 35 40 41 49 54 42 28 24 9 342 136 114 97 97 90 73 57 53 51 47 43 42 43 40 36 35 36 36 35 33 33 34 34 32 29 30 33 35 36 38 40 39 38 37 42 43 24 218 210 213 207 196 188 185 186 186 185 186 187 186 186 182 177 177 179 179 179 174 170 170 165 162 165
240 294 305 281 284 280 318 354 272 227 138 86 35 31 35 40 54 63 50 30 20 14 359 42 85 91 96 89 76 63 54 50 46 39 35 40 40 38 38 38 38 39 38 38 38 37 35 34 34 37 40 39 40 42 40 35 36 42 47 44 59 117 122 163 185 181 174 175 178 178 181 183 184 182 179 177 180 180 178 177 174 168 165 163 165 167
237 275 296 317 270 282 3 15 311 243 195 91 41 35 40 52 63 69 55 31 19 22 43 64 72 81 83 78 78 73 64 57 51 42 39 43 45 43 42 42 42 44 43 42 41 38 39 44 44 43 44 43 42 44 44 42 39 38 46 46 48 83 83 75 119 154 160 162 163 165 169 174 175 174 173 173 175 177 177 177 174 168 166 167 167 167
249 275 275 236 264 295 25 20 307 261 132 100 64 34 31 68 90 85 64 38 23 20 38 63 70 74 81 88 90 85 77 68 56 46 42 45 47 47 46 45 44 44 44 42 41 38 39 46 49 48 46 45 44 43 41 44 42 36 41 40 30 43 56 52 73 113 143 155 157 159 163 164 164 165 167 168 170 173 174 176 175 170 169 170 168 168
273 261 261 254 283 288 29 28 341 136 109 83 58 35 22 37 90 87 64 38 24 14 21 54 74 81 91 99 99 99 93 75 58 45 38 41 47 51 52 50 44 42 42 41 41 40 39 43 48 49 49 48 48 47 44 45 47 46 49 47 36 35 31 34 61 84 115 141 150 156 161 161 161 163 166 168 171 175 176 177 178 174 172 174 173 174
314 287 279 297 310 287 87 77 95 155 111 51 36 24 21 13 359 40 71 50 29 16 18 37 57 71 93 108 116 128 115 77 55 38 33 42 54 54 51 48 43 43 46 48 50 51 49 48 48 50 53 54 52 51 50 50 52 56 61 64 66 66 61 56 63 72 90 114 131 143 150 154 157 160 166 171 173 177 179 179 177 173 172 174 174 175
309 300 307 273 224 284 123 112 124 175 103 42 22 4 5 2 335 308 137 75 27 15 19 28 49 67 89 95 96 184 181 66 49 29 33 48 57 50 46 46 43 44 48 51 55 57 55 53 51 51 55 58 57 54 52 52 54 58 63 65 68 74 76 75 71 67 78 95 110 125 136 146 151 154 162 169 172 176 178 175 170 167 169 175 179 181
287 241 216 235 216 192 288 246 73 112 85 16 360 354 353 349 331 275 188 84 18 10 16 26 68 83 74 60 49 28 13 84 62 32 39 51 52 48 47 47 44 44 44 46 50 53 53 55 55 54 54 55 58 58 55 55 57 58 59 60 60 64 68 70 70 66 68 81 95 109 120 131 139 142 148 155 161 167 169 165 164 165 169 175 180 184
293 243 224 241 239 233 190 136 64 85 82 4 339 337 352 1 326 251 207 55 11 7 19 31 54 64 57 62 61 50 51 83 73 50 54 59 54 51 51 49 46 45 43 43 45 47 50 53 53 53 53 52 56 59 58 57 58 58 57 56 54 53 53 55 60 62 64 71 82 93 101 110 118 123 128 135 142 152 158 158 164 175 181 181 184 196
354 324 275 249 231 2 145 120 92 95 61 349 321 321 344 348 224 290 15 40 20 21 36 45 59 72 76 80 80 75 78 86 82 74 74 75 67 61 60 61 60 58 56 56 53 47 49 53 53 52 53 53 54 60 62 61 59 57 58 58 54 50 47 46 50 53 55 60 67 73 79 87 94 98 103 109 116 129 140 147 157 168 177 179 183 202
22 357 317 285 81 60 94 108 107 117 41 345 321 325 354 341 224 79 64 65 53 53 65 67 73 86 89 87 88 92 93 89 86 83 81 79 73 65 62 63 63 61 61 62 61 55 50 48 49 52 55 56 53 55 61 64 60 55 55 57 55 52 50 49 49 50 51 53 56 59 61 68 78 85 90 93 98 107 114 119 128 134 136 141 149 162
6 348 31 40 38 59 81 74 80 111 12 348 331 337 13 16 121 112 91 83 78 79 84 82 82 88 91 90 91 93 92 89 86 85 80 76 73 65 58 56 55 53 51 50 53 56 53 48 45 45 48 53 55 54 55 59 59 57 54 52 51 52 52 51 50 51 54 56 58 58 55 53 58 66 72 76 78 82 92 98 102 105 103 101 110 130
354 326 59 50 351 19 76 62 36 25 12 14 27 63 56 61 100 112 104 97 92 91 92 91 90 91 93 95 95 95 94 91 86 84 80 76 72 63 54 52 50 47 45 45 46 47 48 50 50 46 44 44 46 48 47 49 55 60 58 52 49 50 51 52 53 54 55 58 63 66 64 60 59 61 61 65 70 69 72 75 73 75 83 78 68 67
46 53 72 67 45 56 80 92 106 100 74 61 69 80 78 79 90 99 103 105 101 98 98 96 94 94 94 96 96 95 95 91 85 81 78 73 68 60 53 48 44 38 34 39 45 43 40 42 44 45 47 46 45 45 43 41 46 51 51 51 54 57 55 52 51 51 52 53 57 64 69 67 68 73 71 73 81 79 74 75 77 80 87 83 69 63
55 57 71 87 95 91 91 105 111 95 85 80 80 83 86 90 93 97 100 102 103 103 102 98 97 96 94 94 94 93 92 91 86 78 74 72 66 59 54 47 42 38 30 29 37 40 38 37 36 36 39 41 44 46 43 40 42 42 41 41 47 57 60 58 54 54 54 54 52 56 64 64 61 66 74 80 93 97 95 99 105 107 108 109 106 100
29 47 73 108 128 114 92 102 105 96 91 89 86 85 88 90 93 97 98 101 105 104 100 98 98 97 93 91 93 97 96 94 90 83 79 78 68 56 52 46 41 41 37 32 36 40 39 36 35 34 33 32 34 38 39 39 40 40 39 37 37 42 51 56 58 59 63 66 64 61 64 64 53 47 54 59 66 87 106 120 129 131 131 131 128 124
122 92 81 85 90 91 100 107 102 95 93 91 88 89 92 93 95 97 98 101 104 102 99 98 97 95 94 93 94 95 91 87 90 89 82 81 78 67 61 51 41 41 41 36 38 43 40 36 34 33 32 30 28 30 34 35 34 34 34 35 35 36 35 34 35 39 47 64 72 67 65 66 56 43 45 50 47 46 42 28 64 136 153 155 147 143
118 107 98 96 96 103 113 112 105 96 90 90 91 95 98 100 102 102 102 103 103 101 99 99 96 94 94 93 92 89 82 77 80 80 69 63 63 62 60 56 47 44 43 38 38 38 35 35 34 30 28 28 27 27 29 30 31 30 27 27 29 31 32 28 22 21 28 40 55 60 63 68 66 50 36 35 39 42 40 30 27 50 122 169 179 180
112 117 118 115 113 115 114 109 105 100 93 95 101 103 105 107 109 108 109 110 110 111 113 114 114 112 101 91 87 86 84 79 77 78 71 55 45 51 58 59 51 43 40 40 39 35 29 28 27 24 25 26 24 23 23 21 22 25 24 25 25 24 29 34 27 23 25 29 38 48 48 53 66 66 49 32 30 32 36 36 35 43 53 54 72 187
81 98 107 104 100 104 105 101 100 102 101 101 104 104 103 106 107 106 110 114 118 125 127 123 123 126 118 103 92 89 97 97 87 86 81 63 49 50 54 50 45 41 40 37 31 25 21 19 17 16 16 16 15 18 17 13 14 18 18 21 23 21 27 34 31 30 30 27 32 42 38 32 46 61 60 48 33 21 24 33 37 42 47 45 44 47